Wind_Speed
98 96 94 94 92 91 91 90 88 85 83 82 82 84 84 83 83 82 82 84 87 92 93 93 92 91 92 93 91 90 91 92 91 90 90 91 94 94
103 102 102 101 99 98 99 97 96 95 94 93 91 91 91 92 91 89 87 85 84 83 84 86 91 95 96 97 97 97 97 96 96 96 95 94 93 95
107 107 106 105 105 105 104 103 104 104 104 102 101 100 100 100 99 98 97 95 94 92 90 88 87 87 86 86 90 93 96 99 101 101 100 100 99 98
111 111 112 111 110 110 110 111 110 109 109 109 110 110 111 109 107 106 106 104 103 102 100 99 97 96 94 92 90 88 88 87 88 90 92 97 102 103
116 118 118 118 117 117 116 116 117 118 117 117 117 117 117 117 116 114 112 111 109 108 108 108 107 105 104 103 100 99 96 96 94 93 91 90 91 95
113 113 115 117 118 119 119 120 120 121 122 122 123 123 123 121 121 121 120 119 119 118 117 116 114 114 113 112 110 109 108 106 103 102 101 101 98 96
111 111 112 113 114 116 119 120 121 123 124 124 125 125 126 124 124 125 125 126 126 125 125 125 123 121 120 119 118 117 116 115 114 112 111 108 106 104
110 110 111 112 113 114 116 117 118 120 121 123 125 126 128 128 126 128 130 132 131 131 130 129 128 127 128 128 127 125 123 122 121 121 120 119 117 115
106 107 108 110 111 111 111 112 113 114 116 118 119 121 122 125 125 124 126 127 130 133 131 133 135 134 135 135 134 132 132 131 130 128 127 127 124 122
103 104 106 107 108 109 110 110 112 112 115 116 116 117 118 120 121 122 123 124 125 127 130 129 135 136 139 139 139 138 137 138 138 137 136 134 133 131
107 109 109 111 113 112 111 111 111 113 114 113 113 114 116 117 118 118 119 119 121 124 126 126 131 133 133 136 137 137 139 140 141 141 142 142 142 140
116 117 117 118 117 117 117 118 118 120 119 119 118 118 120 120 121 121 120 119 117 116 122 122 124 127 127 129 131 133 133 136 137 137 139 141 143 144
120 121 122 123 124 125 125 125 125 126 125 123 122 123 125 125 126 126 125 123 121 119 122 120 119 120 121 122 125 128 129 130 131 133 136 138 139 140
100 102 104 104 107 110 111 113 115 118 118 118 119 121 122 122 123 125 127 127 126 125 126 124 122 121 119 116 116 121 124 126 128 128 131 133 134 135
86 88 88 90 93 96 98 99 100 102 104 106 107 108 108 108 110 112 115 118 121 124 127 128 125 124 122 119 118 118 118 122 124 124 126 127 128 129
76 78 79 80 82 84 88 90 92 94 96 98 100 101 102 103 104 105 106 107 109 113 117 120 122 122 122 121 120 119 121 118 121 123 124 123 125 125
67 69 71 73 74 77 79 82 85 88 90 94 95 97 98 100 101 100 100 101 101 104 108 110 112 114 115 117 117 118 119 120 121 123 122 121 123 125
67 69 71 72 73 74 75 76 78 79 81 82 84 87 90 92 93 94 95 97 98 100 101 103 103 103 105 109 112 114 115 118 122 123 124 123 125 129
68 69 70 72 74 74 75 75 77 77 78 79 81 82 83 84 85 86 88 89 90 92 94 96 97 97 96 99 103 104 107 110 109 111 112 114 114 119
67 69 70 72 73 74 75 75 77 78 79 80 80 81 81 82 83 84 85 85 84 85 86 88 90 89 87 89 90 98 94 94 98 99 102 101 105 107
69 70 70 71 72 73 75 76 77 77 78 78 78 78 79 79 81 82 82 82 82 82 83 86 86 85 85 85 87 91 91 85 87 91 95 95 99 98
67 68 68 69 70 70 71 72 72 73 74 74 74 74 75 76 78 77 78 79 79 79 81 83 82 80 81 81 83 84 85 85 80 82 88 91 93 93
60 60 60 60 62 63 66 68 69 69 68 68 69 70 70 71 71 72 72 72 72 72 73 74 74 73 74 74 75 77 77 78 77 74 78 80 83 84
Wind_Direction
253 253 253 252 253 254 255 255 254 252 251 251 251 249 249 251 252 252 252 252 253 252 250 251 252 253 254 254 253 251 250 250 251 252 252 252 252 253
256 257 256 254 253 252 252 253 253 253 252 249 249 250 250 251 252 253 252 251 251 251 252 253 253 253 253 253 254 254 254 254 252 252 253 254 253 253
256 256 256 255 254 253 253 252 253 253 253 252 250 249 251 251 251 252 253 253 252 252 252 253 252 252 252 253 252 251 252 253 252 252 252 253 254 255
255 254 254 253 252 252 252 251 251 252 252 253 253 253 253 253 253 252 251 251 252 253 254 254 254 253 253 253 253 253 252 253 254 253 253 253 254 255
254 254 254 253 253 252 251 251 250 250 251 251 252 252 252 253 253 254 253 252 252 252 253 254 255 255 256 257 255 255 255 255 255 255 255 255 255 255
257 257 256 255 255 254 254 253 253 252 252 252 252 252 251 251 252 252 253 252 252 252 253 253 253 253 253 254 256 257 257 257 255 255 255 257 256 254
256 256 256 256 256 255 255 255 255 255 254 255 255 254 254 252 251 251 251 251 252 253 253 253 253 254 254 253 253 253 254 256 257 257 257 257 257 255
258 258 258 257 257 256 256 257 256 256 256 256 256 256 256 255 254 253 252 252 252 253 253 253 253 253 253 253 254 253 254 254 254 254 255 256 257 257
258 258 258 257 257 257 257 257 257 257 257 256 256 257 257 256 256 256 255 255 254 254 253 253 254 253 253 254 254 253 253 254 254 254 254 253 254 254
257 257 257 257 257 257 258 258 258 258 257 257 256 256 256 256 256 256 256 255 255 254 254 253 254 254 254 254 254 254 254 253 253 254 254 254 254 254
257 256 257 256 256 256 257 256 256 256 256 256 256 256 256 256 257 257 257 256 255 255 255 254 255 254 254 254 255 255 254 255 255 255 255 255 255 255
259 259 258 258 258 258 257 257 256 256 256 256 256 256 257 257 257 257 257 258 257 257 256 256 255 255 255 256 256 256 256 256 256 256 256 256 256 255
260 260 260 260 260 260 260 260 259 258 258 257 257 257 257 257 257 257 258 258 257 256 256 257 257 256 255 255 257 257 256 256 256 256 256 256 256 255
260 260 260 260 260 260 259 259 259 259 259 259 259 259 259 259 259 259 258 258 257 256 256 256 256 257 257 256 256 258 258 257 256 256 255 255 256 256
261 260 260 260 260 260 259 259 258 258 258 258 258 259 259 260 260 259 259 258 257 256 256 257 257 257 257 257 257 257 258 258 258 257 257 256 256 256
261 262 261 260 259 258 258 258 257 257 257 257 257 258 259 259 260 260 260 259 258 257 256 255 256 256 257 257 257 257 257 257 258 258 258 257 257 256
263 263 263 262 261 259 259 259 258 257 257 258 258 259 259 259 259 259 259 260 260 260 259 258 257 257 257 257 257 257 257 257 257 257 258 258 258 258
265 264 263 264 264 264 263 262 261 260 260 259 259 259 258 259 259 259 259 259 259 259 259 259 258 257 257 258 257 258 258 257 258 258 258 257 258 258
268 268 267 266 265 265 264 263 263 263 262 261 259 259 258 258 258 258 258 257 258 258 258 259 259 259 257 257 258 257 258 259 258 259 259 259 259 259
269 267 266 265 264 264 264 263 262 261 260 261 261 261 261 261 262 261 261 261 260 261 260 260 260 260 260 259 259 259 256 257 259 259 260 260 260 260
270 269 267 266 265 264 263 262 263 263 263 262 262 262 262 262 262 262 262 263 263 262 262 262 262 262 263 262 261 261 262 258 257 259 260 259 259 259
271 270 269 268 267 266 265 264 264 263 263 264 264 263 263 261 261 262 262 262 262 262 263 263 263 263 263 262 262 262 262 262 258 256 257 258 258 259
274 272 271 269 267 266 264 264 264 264 264 264 263 262 261 261 261 261 261 261 262 262 261 263 263 262 262 261 262 262 262 262 261 257 256 256 257 258
Height
10494 10498 10504 10508 10511 10515 10518 10522 10525 10530 10534 10538 10542 10544 10547 10551 10555 10558 10563 10567 10571 10575 10579 10583 10587 10592 10597 10602 10607 10611 10615 10619 10622 10626 10631 10636 10642 10647
10468 10472 10477 10481 10485 10489 10493 10496 10500 10505 10510 10514 10517 10521 10525 10528 10534 10537 10541 10545 10549 10553 10557 10561 10565 10569 10573 10578 10583 10587 10591 10595 10601 10605 10609 10612 10617 10624
10438 10443 10447 10452 10457 10461 10465 10469 10473 10477 10481 10486 10491 10495 10498 10503 10510 10513 10518 10521 10526 10530 10535 10539 10542 10545 10549 10554 10558 10562 10566 10571 10575 10580 10585 10590 10594 10599
10406 10410 10415 10419 10424 10428 10433 10437 10442 10447 10452 10457 10461 10466 10469 10475 10480 10485 10491 10495 10500 10505 10509 10513 10516 10520 10525 10529 10533 10538 10541 10545 10550 10555 10560 10566 10570 10574
10374 10377 10382 10386 10392 10395 10399 10404 10409 10414 10418 10423 10429 10435 10438 10443 10448 10453 10462 10465 10469 10475 10480 10485 10489 10494 10498 10502 10507 10511 10517 10522 10528 10530 10534 10539 10545 10548
10342 10345 10349 10353 10358 10362 10365 10370 10375 10380 10384 10388 10393 10399 10404 10412 10416 10422 10427 10432 10437 10441 10446 10452 10458 10463 10468 10473 10480 10484 10488 10493 10498 10503 10508 10513 10518 10522
10309 10313 10317 10320 10323 10326 10330 10336 10341 10345 10350 10354 10358 10363 10366 10376 10383 10386 10390 10396 10400 10406 10411 10416 10427 10433 10436 10440 10447 10453 10456 10460 10466 10472 10477 10483 10489 10495
10277 10281 10284 10287 10291 10294 10298 10302 10306 10309 10313 10318 10321 10326 10328 10335 10343 10350 10356 10359 10368 10371 10374 10381 10389 10395 10399 10405 10410 10417 10423 10428 10432 10438 10446 10452 10458 10463
10246 10249 10252 10253 10258 10262 10266 10268 10271 10274 10278 10281 10288 10291 10295 10296 10305 10312 10316 10324 10328 10327 10342 10347 10346 10357 10358 10365 10373 10380 10386 10391 10396 10402 10409 10416 10422 10428
10215 10217 10220 10221 10224 10229 10232 10236 10237 10241 10242 10248 10254 10256 10259 10259 10266 10271 10277 10284 10290 10293 10296 10309 10306 10315 10319 10326 10332 10339 10344 10350 10355 10362 10370 10377 10384 10391
10183 10185 10188 10188 10191 10198 10202 10202 10204 10205 10207 10213 10218 10221 10223 10226 10229 10234 10238 10246 10253 10255 10257 10270 10268 10274 10281 10287 10290 10297 10303 10308 10317 10324 10331 10337 10343 10350
10146 10146 10151 10153 10156 10161 10165 10167 10171 10168 10174 10178 10184 10188 10189 10190 10192 10197 10202 10209 10215 10223 10216 10228 10236 10237 10246 10250 10252 10257 10264 10269 10277 10284 10289 10296 10302 10308
10110 10111 10114 10117 10119 10121 10125 10130 10132 10131 10134 10142 10147 10150 10150 10154 10156 10161 10167 10174 10180 10187 10179 10188 10197 10200 10210 10218 10216 10217 10222 10229 10238 10244 10247 10252 10257 10265
10075 10077 10078 10083 10084 10085 10088 10090 10092 10092 10098 10104 10108 10108 10112 10118 10121 10123 10126 10133 10140 10146 10142 10149 10160 10163 10171 10181 10187 10180 10182 10188 10191 10199 10204 10210 10218 10224
10044 10044 10048 10051 10052 10052 10052 10054 10057 10061 10064 10067 10071 10073 10076 10082 10084 10085 10087 10092 10099 10103 10105 10109 10121 10126 10134 10143 10148 10150 10150 10146 10149 10157 10163 10171 10181 10187
10019 10018 10019 10022 10023 10023 10022 10023 10027 10031 10034 10037 10039 10043 10045 10048 10048 10049 10052 10055 10061 10061 10066 10072 10079 10088 10096 10102 10109 10111 10109 10117 10112 10116 10122 10132 10137 10144
9997 9996 9994 9994 9995 9996 9997 9998 10000 10002 10006 10007 10010 10013 10013 10013 10014 10017 10021 10022 10027 10027 10028 10035 10043 10051 10057 10062 10067 10071 10075 10078 10077 10078 10085 10095 10097 10100
9974 9973 9971 9970 9970 9969 9971 9971 9973 9975 9977 9980 9982 9981 9980 9982 9984 9986 9989 9991 9995 9995 9997 9997 10006 10016 10022 10024 10027 10031 10037 10038 10037 10043 10048 10057 10060 10057
9951 9950 9949 9947 9945 9946 9946 9946 9946 9947 9949 9950 9951 9951 9953 9955 9957 9958 9958 9962 9964 9965 9968 9969 9971 9977 9989 9995 9991 9998 9999 9998 10007 10009 10012 10015 10022 10017
9927 9925 9923 9921 9920 9920 9919 9919 9918 9918 9921 9922 9924 9924 9926 9929 9929 9930 9930 9933 9937 9940 9942 9941 9942 9947 9959 9962 9966 9954 9968 9975 9973 9976 9977 9984 9982 9981
9899 9898 9897 9896 9895 9894 9893 9893 9893 9894 9895 9897 9898 9900 9902 9904 9903 9902 9905 9907 9910 9912 9914 9912 9915 9922 9926 9932 9933 9928 9929 9946 9951 9949 9946 9950 9946 9952
9874 9872 9872 9872 9871 9870 9870 9869 9869 9870 9870 9871 9873 9875 9876 9877 9876 9878 9880 9881 9884 9887 9887 9886 9889 9897 9899 9901 9902 9903 9903 9903 9918 9922 9919 9917 9919 9924
9851 9849 9848 9848 9847 9846 9846 9846 9845 9846 9848 9850 9850 9850 9851 9852 9854 9854 9855 9858 9859 9862 9863 9864 9866 9869 9871 9874 9876 9875 9878 9879 9880 9892 9892 9894 9895 9898